Regional Weather Roundup
Issued by NWS Bismarck, ND

Home | Current Version | Previous Version | Text Only | Print | Product List | Glossary On
Versions: 1 2 3 4 5 6 7 8 9 10 11 12 13 14 15 16 17 18 19 20 21 22 23 24 25 26 27 28 29 30 31 32 33 34 35 36 37 38 39 40 41 42 43 44 45 46 47 48 49 50
000
ASUS43 KBIS 210210
RWRBIS

NWR BROADCAST TEXT
NATIONAL WEATHER SERVICE BISMARCK ND
800 PM CST SAT JAN 20 2018

NOTE: "FAIR" INDICATES FEW OR NO CLOUDS BELOW 12,000 FEET WITH NO
SIGNIFICANT WEATHER AND/OR OBSTRUCTIONS TO VISIBILITY.


CITY           SKY/WX    TMP DP  RH WIND       PRES   REMARKS
WILLISTON      FAIR      23  17  78 SW8       29.92R WCI  14
MINOT          FAIR      29  21  72 W9        29.89R
MINOT AFB      CLEAR     26  20  80 W9        29.88R WCI  16
BISMARCK       FAIR      31  25  78 W6        29.93R
DICKINSON      FAIR      27  21  78 W10       29.90S WCI  17
GARRISON         N/A     29  21  72 W12       29.90R WCI  19
HETTINGER ARPT CLOUDY    30  22  72 NW8       29.94R
JAMESTOWN      FAIR      30  26  85 SW7       29.89R
CARRINGTON     FAIR      28  27  93 W8        29.90S
HAZEN            N/A     27  23  86 CALM      29.94R
LINTON           N/A     32  25  74 SW6       29.95R
MANDAN         FAIR      30  25  80 NW12      29.91S
OAKES            N/A     32  28  86 W3        29.92R
RUGBY          FAIR      21  19  93 SW13      29.88R WCI   9
STANLEY        FAIR      23  19  86 CALM      29.91R
TIOGA          FAIR      19  19 100 CALM      29.91R
WATFORD CITY   FAIR      25  19  80 SW7       29.92S WCI  17
$$

CITY           SKY/WX    TMP DP  RH WIND       PRES   REMARKS
GRAND FORKS    FAIR      23  22  96 W3        29.88R
GRAND FORKS AF FAIR      28  23  83 NW10      29.88R WCI  18
DEVILS LAKE    FAIR      23  20  88 SW5       29.89R WCI  17
FARGO          FAIR      32  28  85 SW8       29.91R
CANDO          FAIR      19  19 100 W6        29.89R WCI  11
CAVALIER         N/A     30  27  86 W15       29.85R WCI  19
GRAFTON        FAIR      30  27  86 MISG      29.89R
GWINNER          N/A     36  28  75 NW6       29.91S
LANGDON        FAIR      19  19 100 W14       29.85R WCI   6
ROLLA          FAIR      28  25  86 W13       29.85R WCI  18
WALHALLA       FAIR      30  28  93 W10       29.85R
$$

CITY           SKY/WX    TMP DP  RH WIND       PRES   REMARKS
ABERDEEN       CLOUDY    37  30  75 W5        29.95R
MOBRIDGE       CLOUDY    36  27  69 NW5       29.92R
BUFFALO          N/A     29  24  82 W10       29.88R WCI  20
RAPID CITY     FLURRIES  32  27  81 VRB3      29.95S
GLASGOW        CLEAR     21  17  84 SW5       29.91R WCI  15
SIDNEY         CLEAR     26  21  81 S8        29.94R WCI  18
WOLF POINT     CLEAR     20  14  77 CALM      29.93S
GLENDIVE       PTCLDY    25  20  81 S6        29.95R WCI  18
MILES CITY     MOCLDY    23  18  81 S9        29.96S WCI  13
BAKER          CLOUDY    25  21  85 CALM      29.95R
$$

CITY           SKY/WX    TMP DP  RH WIND       PRES   REMARKS
BILLINGS       MOCLDY    30  18  60 W10       29.95R
GREAT FALLS    CLEAR     27  19  72 SW12      29.91S WCI  17
REGINA         CLEAR     23  19  86 NW6       29.87R WCI  16
ESTEVAN        CLEAR     18  16  93 SW9       29.88R WCI   6
$$





USA.gov is the U.S. government's official web portal to all federal, state and local government web resources and services.